Regional Weather Roundup
Issued by NWS Wakefield, VA

Home | Current Version | Previous Version | Graphics & Text | Print | Product List | Glossary On
Versions: 1 2 3 4 5 6 7 8 9 10 11 12 13 14 15 16 17 18 19 20 21 22 23 24 25 26 27 28 29 30 31 32 33 34 35 36 37 38 39 40 41 42 43 44 45 46 47 48 49 50
000
ASUS41 KAKQ 241515
RWRAKQ

REGIONAL WEATHER ROUNDUP
NATIONAL WEATHER SERVICE WAKEFIELD VA
1100 AM EDT FRI MAR 24 2017

Note: "fair" indicates few or no clouds below 12,000 feet with no
significant weather and/or obstructions to visibility. * = Denotes
station may not report precipitation (e.g., rain,snow,etc.),
thunder or fog.

VAZ042-051-052>054-056-241600-
NORTHERN VIRGINIA

CITY           SKY/WX    TMP DP  RH WIND       PRES   REMARKS
WASH NATIONAL  LGT RAIN  40  35  83 S13       30.44F
DULLES         LGT RAIN  38  34  85 S12       30.41F
FORT BELVOIR   CLOUDY    39  32  75 S7        30.43F
QUANTICO       CLOUDY    42  33  70 S13       30.47F
FREDERICKSBRG* CLOUDY    45  32  61 S8        30.46F
STAFFORD*      PTSUNNY   43  32  65 S13G20    30.49F
WARRENTON      DRIZZLE   40  33  75 SW9       30.43S
CULPEPER*      RAIN      40  36  84 S6        30.45S
MANASSAS*      LGT RAIN  41  35  79 SW7       30.44F
LEESBURG*      MIX PCPN  37  36  93 SW7       30.41S
WINCHESTER     CLOUDY    39  34  81 S10G16    30.35F
FRONT ROYAL*     N/A    N/A N/A N/A MISG        N/A
LURAY*         CLOUDY    45  37  76 SW6       30.39S
$$

VAZ048-049-060>072-079>083-241600-
CENTRAL AND SOUTH CENTRAL VIRGINIA

CITY           SKY/WX    TMP DP  RH WIND       PRES   REMARKS
RICHMOND       PTSUNNY   49  21  33 SW13      30.50F
CHESTERFIELD*  FAIR      50  18  27 S9        30.51F
PETERSBURG*    CLOUDY    51  23  33 S7        30.51F
HANOVER        CLOUDY    47  24  40 S7        30.50F
TAPPAHANNOCK*  CLOUDY    44   9  23 S7        30.50F
QUINTON*       FAIR      47  22  37 S3        30.51F
CHARLOTTSVILLE CLOUDY    42  32  67 S7        30.43F
GORDONSVILLE*  CLOUDY    39  33  77 CALM      30.44F
ORANGE*        CLOUDY    37  32  81 S6        30.45F
LOUISA*        CLOUDY    45  34  65 S3        30.44F
BUMPASS*       CLOUDY    42  29  61 S6        30.45F
FARMVILLE*     CLOUDY    50  32  50 S7        30.47S
CREWE*         CLOUDY    51  30  44 S7        30.48F
FORT PICKETT*  CLOUDY    52  19  26 S9        30.49F
CHASE CITY*    FAIR      53  27  36 CALM      30.48F
CLARKSVILLE*   PTSUNNY   54  32  43 SW8       30.48F
SOUTH HILL*    SUNNY     52  33  48 SW8       30.55F
LAWRENCEVILLE* FAIR      53  29  39 SW10G18   30.50F
EMPORIA*       MOSUNNY   52  32  46 S6        30.53S
$$

VAZ088>098-241600-
SOUTHEAST VIRGINIA

CITY           SKY/WX    TMP DP  RH WIND       PRES   REMARKS
NORFOLK        CLOUDY    57  34  41 SW13      30.50F
VIRGINIA BEACH MOSUNNY   56  37  49 S13       30.51S
NORFOLK NAVAL  CLOUDY    56  34  43 SW9       30.52F
WEST POINT*    CLOUDY    49  23  36 SW7       30.53F
SALUDA*        FAIR      48  25  40 SW6       30.51S
NEWPORT NEWS   CLOUDY    51  26  37 SW9       30.51F
LANGLEY AFB    PTSUNNY   51  29  42 SW12      30.51S
FORT EUSTIS    PTSUNNY   50  28  43 S7        30.49F
WILLIAMSBURG*  MOSUNNY   52  28  40 CALM      30.53S
HR EXEC AP*    FAIR      55  36  47 SW14      30.50F
FRANKLIN*      MOSUNNY   53  35  50 S7        30.52F
US460-WAKEFLD  MOSUNNY   53  31  42 VRB7      30.51F
$$

VAZ020-022-025-037-045-241600-
WEST CENTRAL AND SOUTHWEST VIRGINIA

CITY           SKY/WX    TMP DP  RH WIND       PRES   REMARKS
STAUNTON*      CLOUDY    46  28  49 S8        30.40F
WAYNESBORO*    CLOUDY    44  27  51 CALM      30.40S
HOT SPRINGS VA PTSUNNY   48  23  37 W15       30.37S
LYNCHBURG      CLOUDY    48  31  51 SW7       30.46R
DANVILLE       CLOUDY    50  33  52 VRB7      30.49F
SOUTH BOSTON*  CLOUDY    53  31  43 SW6       30.48F
MARTINSVILLE   CLOUDY    52  27  37 SW9       30.49S
ROANOKE        CLOUDY    47  29  49 CALM      30.45S
BLACKSBURG     CLOUDY    52  31  44 SW6       30.44F
DUBLIN*        CLOUDY    52  31  44 S7        30.43S
MARION*        SUNNY     57  33  39 SW3       30.42F
HILLSVILLE*    SUNNY     52  34  51 S12       30.41R
RICHLANDS*     PTSUNNY   60  42  51 CALM      30.37F
WISE*          PTSUNNY   61  39  44 CALM      30.37S
ABINGDON*      MOSUNNY   60  36  40 SW6       30.40S
$$

MDZ021>025-VAZ099-100-241600-
SOUTHERN MARYLAND AND THE DELMARVA PENINSULA

CITY           SKY/WX    TMP DP  RH WIND       PRES   REMARKS
PATUXENT RIVER CLOUDY    44  26  49 SW12      30.48F
BAY BRIDGE APT CLOUDY    46  27  46 S15G24    30.45F
LEONARDTOWN    MOSUNNY   43  27  52 SW13      30.48F
DOVER          CLOUDY    46  34  63 S14       30.45F
GEORGETOWN     CLOUDY    49  22  34 SW12      30.49F
EASTON         NOT AVBL
CAMBRIDGE      SUNNY     48  25  40 S14       30.48F
SALISBURY      MOSUNNY   48  25  40 SW14G20   30.49F
OCEAN CITY     CLOUDY    47  33  58 S10G18    30.50F
WALLOPS ISLAND MOSUNNY   49  37  63 S13       30.52S
ACCOMACK*      CLOUDY    51  32  48 SW7       30.51S
$$

NCZ012>017-030>032-241600-
NORTH CENTRAL AND EASTERN NORTH CAROLINA

CITY           SKY/WX    TMP DP  RH WIND       PRES   REMARKS
ROANOKE RAPIDS FAIR      54  39  58 SW8       30.52S
RALEIGH        MOSUNNY   57  38  48 SW8       30.51S
ELIZABETH CITY CLOUDY    55  39  54 S7        30.53F
AHOSKIE*         N/A     56  39  53 S6        30.52F
EDENTON*       CLOUDY    55  35  46 S6        30.54S
CURRITUCK*     CLOUDY    55  37  52 SE3       30.53F
KILL DEVIL HLS NOT AVBL
MANTEO         CLOUDY    51  43  72 SW6       30.54S
CAPE HATTERAS  SUNNY     61  48  62 S7        30.54S
TARBORO*       NOT AVBL
GOLDSBORO      SUNNY     57  39  51 SW3       30.51S
WASHINGTON     SUNNY     56  39  52 S5        30.53F
GREENVILLE     SUNNY     59  36  41 SW6       30.52S
NEW BERN       SUNNY     59  46  62 VRB3      30.54F
WILMINGTON     SUNNY     63  48  58 E6        30.52F
$$

VAZ048-241600-
ELSEWHERE

CITY           SKY/WX    TMP DP  RH WIND       PRES   REMARKS
HARRISBURG PA  CLOUDY    40  29  64 S9G21     30.37F
BALTIMORE      LGT RAIN  44  31  60 SW10G22   30.42F
ANNAPOLIS      CLOUDY    47  26  44 S16G23    30.43F
ANDREWS AFB    LGT RAIN  42  32  68 SW14      30.41F
PHILADELPHIA   CLOUDY    45  26  47 SW14G25   30.43F
HENDERSON NC   SUNNY     53  32  45 SW9       30.50F
GREENSBORO     CLOUDY    50  33  52 SW9       30.49R
ROCKY MOUNT    SUNNY     56  43  61 S6        30.52F
$$

VAZ100-241600-
MARINE

STATION/POSITION TIME  TEMP    WIND        PRES    WAVE   SWELL
                       AIR SEA DIR/SP/G            HT/PER HT/PER
                 (UTC) (F)     (DEG/KT/KT) (MB)    (FT/S) (FT/S)
CAPE MAY NJ      1448   44 42  200/ 14/ 17 1031.8F
LEWES DE         1436   47 42  200/  7/ 10 1032.1F
OCEAN-CITY-INLET 1436   45 42  230/ 15/ 18 1033.5S
WACHAPREAGUE VA  1448   48 45  210/ 10/ 14 1033.1F
THOMAS POINT MD  1500   42 43  190/ 17/ 19   N/A
GOOSES REEF MD   1500   43 43  200/ 14/ 16 1032.2    1/ 2
COVE POINT MD    1448   43     230/ 12/ 18 1032.5F
SOLOMONS ISLAND  1448   44 44  220/ 11/ 15   N/A
BISHOPS HEAD MD  1448   44 43  200/ 14/ 18 1032.9F
PINEY POINT MD   1442          230/  7/  9   N/A
POTOMAC MD       1500   44 45  240/  8/ 10 1032.0    1/ 2
CAMBRIDGE MD     1448   45 44  200/ 10/ 13 1031.4F
LEWISETTA VA     1448   44 46  230/  9/ 14 1032.4F
RAPPAHANNOCK LGT 1448          200/ 12/ 13 1033.9S
STINGRAY PT      1450   46     220/ 10/ 12 1033.3R
YORK RVR RNG VA  1448   48     220/  8/  9 1032.7R
YORKTOWN VA      1448   50 47  210/  8/ 13 1033.0R
JAMESTOWN VA     1500   48 50   70/  2/  4   N/A     0
DOMINION TERM VA 1448   48     240/  5/  6 1033.3F
KIPTOPEKE VA     1442      46  190/  7/  9   N/A
CHES BAY BRIDGE  1448   51 47  210/  9/ 11 1033.2F
CAPE HENRY VA    1448   53     200/ 10/ 13   N/A
WILLOUBY STN VA  1448   51     210/  9/ 10 1034.0F
S CRANEY ISL VA  1448   52     210/ 10/ 13 1033.0F
CAPE HENRY BUOY  1442      45                N/A     3/ 9
CAPE CHARLES BUO 1451      45                N/A     3/ 9
OFFSHORE WE BUOY 1451      45                N/A     3/ 6
64NM E OF VA BCH 1450   51 48  150/  6/  6 1033.8F   3/ 9   3/ 9
DUCK PIER NC     1448   49 47  130/  6/  7 1033.3F
44100 DUCK FRF   1435      47                N/A     3/ 8   2/11
44056 DUCK FRF   1430      48                N/A     3/ 8   2/11
OREGON INLET NC  1442   53 48  110/  5/  8 1033.9F
HATTERAS NC      1442   60 52  200/  4/  8 1033.7S
DIAMOND SHLS NC  1450   61 75  180/ 14/ 16 1034.3S   5/ 8   5/ 8
CAPE LOOKOUT NC  1500   59     130/  2/  3 1033.5F
$$



USA.gov is the U.S. government's official web portal to all federal, state and local government web resources and services.